TimeEST,TemperatureF,Dew PointF,Humidity,Sea Level PressureIn,VisibilityMPH,Wind Direction,Wind SpeedMPH,Gust SpeedMPH,PrecipitationIn,Events,Conditions,WindDirDegrees,DateUTC
12:52 AM,32.0,24.1,73,30.21,9.0,Calm,Calm,-,N/A,,Clear,0,2013-11-16 05:52:00
1:52 AM,32.0,24.1,73,30.23,10.0,Calm,Calm,-,N/A,,Clear,0,2013-11-16 06:52:00
2:52 AM,33.1,25.0,72,30.25,10.0,Calm,Calm,-,N/A,,Overcast,0,2013-11-16 07:52:00
3:52 AM,33.1,26.1,75,30.25,10.0,Calm,Calm,-,N/A,,Overcast,0,2013-11-16 08:52:00
4:52 AM,35.1,25.0,67,30.27,10.0,Calm,Calm,-,N/A,,Mostly Cloudy,0,2013-11-16 09:52:00
5:52 AM,34.0,26.1,73,30.27,10.0,Calm,Calm,-,N/A,,Overcast,0,2013-11-16 10:52:00
6:52 AM,35.1,26.1,70,30.29,10.0,Calm,Calm,-,N/A,,Overcast,0,2013-11-16 11:52:00
7:52 AM,36.0,27.0,70,30.31,10.0,Calm,Calm,-,N/A,,Mostly Cloudy,0,2013-11-16 12:52:00
8:52 AM,41.0,24.1,51,30.32,10.0,Calm,Calm,-,N/A,,Clear,0,2013-11-16 13:52:00
9:52 AM,48.0,21.0,34,30.32,10.0,Calm,Calm,-,N/A,,Clear,0,2013-11-16 14:52:00
10:52 AM,52.0,21.9,31,30.31,10.0,Calm,Calm,-,N/A,,Clear,0,2013-11-16 15:52:00
11:52 AM,55.9,25.0,30,30.30,10.0,Variable,3.5,-,N/A,,Clear,0,2013-11-16 16:52:00
12:52 PM,57.9,26.1,30,30.27,10.0,Calm,Calm,-,N/A,,Clear,0,2013-11-16 17:52:00
1:52 PM,57.9,27.0,31,30.26,10.0,SW,6.9,-,N/A,,Clear,230,2013-11-16 18:52:00
2:52 PM,57.9,26.1,30,30.26,10.0,Calm,Calm,-,N/A,,Clear,0,2013-11-16 19:52:00
3:52 PM,50.0,28.9,44,30.27,10.0,Calm,Calm,-,N/A,,Clear,0,2013-11-16 20:52:00
4:52 PM,42.1,27.0,55,30.28,10.0,Calm,Calm,-,N/A,,Clear,0,2013-11-16 21:52:00
5:52 PM,37.9,27.0,65,30.29,10.0,ESE,3.5,-,N/A,,Clear,120,2013-11-16 22:52:00
6:52 PM,37.0,27.0,67,30.30,10.0,Calm,Calm,-,N/A,,Clear,0,2013-11-16 23:52:00
7:52 PM,34.0,26.1,73,30.31,10.0,NNE,3.5,-,N/A,,Clear,20,2013-11-17 00:52:00
8:52 PM,33.1,26.1,75,30.31,10.0,Calm,Calm,-,N/A,,Clear,0,2013-11-17 01:52:00
9:52 PM,32.0,25.0,75,30.30,10.0,Calm,Calm,-,N/A,,Clear,0,2013-11-17 02:52:00
10:52 PM,37.0,28.0,70,30.28,10.0,Calm,Calm,-,N/A,,Clear,0,2013-11-17 03:52:00
11:52 PM,36.0,28.0,73,30.29,10.0,East,9.2,-,N/A,,Clear,100,2013-11-17 04:52:00